Regional Weather Roundup
Issued by NWS

Home | Current Version | Previous Version | Text Only | Print | Product List | Glossary On
Versions: 1 2 3 4 5 6 7 8 9 10 11 12 13 14 15 16 17 18 19 20 21 22 23 24 25 26 27 28 29 30 31 32 33 34 35 36 37 38 39 40 41 42 43 44 45 46 47 48 49 50
000
ASUS43 KTOP 011408
RWRKS

WEATHER ROUNDUP FOR KANSAS
NATIONAL WEATHER SERVICE GOODLAND KS
900 AM CDT MON SEP 01 2014

NOTE:  "FAIR" INDICATES FEW OR NO CLOUDS BELOW 12,000 FEET WITH NO
SIGNIFICANT WEATHER AND/OR OBSTRUCTIONS TO VISIBILITY.

KSZ001>006-013>018-027>032-041>047-011500-
NORTHWEST KANSAS

CITY           SKY/WX    TMP DP  RH WIND       PRES   REMARKS
GOODLAND       PTSUNNY   57  53  86 NW8       30.03R
HAYS           MOSUNNY   63  54  72 N6        29.95R
HILL CITY      MOSUNNY   62  55  77 NW6       29.96R
RUSSELL        SUNNY     65  59  81 NW12      29.92R
$$

KSZ061>065-074>080-084>089-011500-
SOUTHWEST KANSAS

CITY           SKY/WX    TMP DP  RH WIND       PRES   REMARKS
DODGE CITY     PTSUNNY   65  61  87 N12       29.93S
ELKHART          N/A     63  50  63 N10         N/A
GARDEN CITY    SUNNY     63  54  72 N14       29.95S
GREAT BEND     CLOUDY    66  63  88 NW6       29.93F
LIBERAL        CLOUDY    66  57  72 N16       29.95R
PRATT          CLOUDY    68  57  68 SE17      29.90S
$$

KSZ066>073-081>083-090>101-011500-
SOUTHEAST KANSAS

CITY           SKY/WX    TMP DP  RH WIND       PRES   REMARKS
CHANUTE        CLOUDY    66  63  90 SE16G26   29.91F
COFFEYVILLE    CLOUDY    69  63  81 SE17      29.94F
HUTCHINSON     CLOUDY    69  61  75 SE10      29.90R
MEDICINE LODGE   N/A     70  62  76 E17G28    29.85S
NEWTON         MOSUNNY   66  57  72 SE15      29.92R
PARSONS        PTSUNNY   67  63  87 SE14G21   29.93F
WICHITA INTL   PTSUNNY   70  61  73 SE16G24   29.88F
WICHITA JABRA  CLOUDY    68  62  81 SE14G22   29.89S
WICHITA MCCONL PTSUNNY   69  64  85 E15G24    29.89S
WINFIELD       CLOUDY    70  61  73 SE13G25   29.90S
$$

KSZ007>012-019>026-033>040-048>060-102>105-011500-
NORTHEAST KANSAS

CITY           SKY/WX    TMP DP  RH WIND       PRES   REMARKS
CONCORDIA      SUNNY     67  63  87 NW8       29.90R
EMPORIA        PTSUNNY   66  66 100 S12       29.88R
LAWRENCE       CLOUDY   N/A N/A N/A S10       29.87R
MANHATTAN      SUNNY     68  65  90 SW8       29.86R
OLATHE IND     CLOUDY    66  64  93 S12       29.88R
OLATHE EXE     CLOUDY    65  63  93 S10       29.87R
SALINA         MOSUNNY   69  64  84 SW9       29.89R
TOPEKA BILLARD PTSUNNY   69  66  90 S8        29.86S
TOPEKA FORBES  PTSUNNY   67  64  90 S8        29.86S
$$


USA.gov is the U.S. government's official web portal to all federal, state and local government web resources and services.